Погода в Верхоречье

Россия / Республика Крым     44°41′47″N   33°59′29″E
темп.,
°C
ветер,
м/с
пор.,
м/с
влажн.,
%
обл.,
%
осадки,
мм/ч
давл.,
гПа
погр.,
м
19 апреля, пн
пн1900:00+8зсз1190100 0.1 101651
03:00+9з1186100 0.2 101543
06:00+8з1186100 0.0 101549
09:00+10з2179100 0.0 1014309
12:00+12зсз3376100 0.0 1014814
15:00+14сз227098 0.1 1013954
18:00+14с2275100 0.0 1011287
21:00+11юв1288100 0.0 101168
20 апреля, вт
вт2000:00+10всв239333 1.1 1007133
03:00+10юз2397100 7.3 1006168
06:00+10ююв23959 2.7 1004127
09:00+10ююз7158962 2.8 1004901
12:00+9юз101785100 0.1 10041203
15:00+7зюз101596100 0.4 10061208
18:00+6з81397100 0.3 10091021
21:00+7юз379698 0.5 1013418
21 апреля, ср
ср2100:00+5ю3596100 0.0 1014150
03:00+6ю3591100 0.1 1015157
06:00+5ю239077 0.1 101638
09:00+10юз3470100 0.1 1017816
12:00+12зюз4558100 0.1 10181483
15:00+13зюз5661100 0.6 10181290
18:00+11зюз467247 0.3 1019633
21:00+7ю22845 0.4 102121
22 апреля, чт
чт2200:00+6ююв22794 0.0 102122
03:00+6ююв227926 0.0 102118
06:00+6ююв227482 0.0 102231
09:00+12юз245467 0.0 1022961
12:00+14з444683 0.0 10221965
15:00+15з554524 0.0 10221957
18:00+13з34561 0.0 1022738
21:00+8вюв21780 0.0 102312
23 апреля, пт
пт2300:00+7юв22790 0.0 102319
03:00+6юв227388 0.0 102217
06:00+6юв227098 0.0 102218
09:00+13ю12500 0.0 1021594
12:00+16зюз34396 0.0 10201953
15:00+17юз44355 0.0 10192068
18:00+15ююз2450100 0.0 1019261
21:00+9юв3269100 0.0 102038